[[{"header":{"parameterUnit":"m.s-1","parameterCategory":1,"la1":30.2991,"la2":30.254,"lo1":-89.0895,"lo2":-89.0444,"dy":0.0017,"dx":0.0017,"nx":28,"ny":28,"refTime":"2024-05-13T09:00:00:Z","depth":0,"parameterNumber":2,"parameterNumberName":"U-component_of_WINDS"},"data":[0,0,0,0,0,0,0,0,0,0,0,0,0,0,0,0,0,0,0,0,0,0,0,0,0,0,0,0,0,0,0,0,0,0,0,0,0,0,0,0,0,0,0,0,0,0,0,0,0,0,0,0,0,0,0,0,0,0,1.0241,1.0244,0,1.0612,1.0616,1.062,1.0862,1.0864,1.0865,1.0867,1.1246,1.1254,1.1263,0,0,0,0,0,0,0,0,0,0,0,0,0,0.9741,0.9749,1.024,1.0245,1.0249,1.0611,1.0616,1.0622,1.0862,1.0864,1.0866,1.0868,1.1243,1.1253,1.1263,0,0,0,0,0,0,0,0,0,0,0,0,0,1.002,0.9752,1.0239,1.0413,1.0432,1.061,1.0617,1.0623,1.0862,1.0864,1.0866,1.0868,1.1239,1.1252,1.1265,1.1299,0,0,1.1304,1.131,0,0,0,0,0,0,0,0,1.0003,1.0038,1.0383,1.0402,1.0423,1.0693,1.058,1.0849,1.0861,1.0699,1.0867,1.087,1.106,1.1088,1.1152,1.1316,1.1333,1.1306,1.1314,1.1319,1.1323,0,0,0,0,0,0,0,0.9984,1.0023,1.0387,1.0388,1.0412,1.0473,1.0516,1.0632,1.0862,1.0713,1.0731,1.0772,1.1071,1.1139,1.1163,1.1338,1.1305,1.1317,1.1325,1.133,1.1554,1.1552,0,0,0,0,0,0,0.9937,1.0005,1.0376,1.0399,1.0215,1.048,1.0528,1.0604,1.0861,1.0903,1.077,1.0782,1.1116,1.1148,1.1177,1.1237,1.1319,1.1331,1.1339,1.1555,1.1553,1.1551,0,0,0,0,0,0,0.9925,0.9968,1.0361,1.0207,1.0262,1.0487,1.0571,1.061,1.0679,1.0904,1.0946,1.0797,1.1119,1.1159,1.1268,1.1253,1.1337,1.1349,1.1557,1.1555,1.1552,1.1353,0,0,0,0,0,0,0.991,0.9962,0.9976,1.0206,1.0269,1.0443,1.057,1.0616,1.07,1.072,1.0941,1.0979,1.1124,1.1247,1.1281,1.1272,1.1359,1.156,1.1556,1.1553,1.1361,1.1343,1.1328,0,0,0,0,0,0.9891,0.9904,0.9976,1.0019,1.0292,1.0442,1.0479,1.0645,1.0698,1.0715,1.0861,1.0972,1.1249,1.1256,1.1296,1.1291,1.1562,1.1557,1.1553,1.1369,1.1347,1.1328,0,0,0,0,0,0,0.9666,0.9937,1.002,1.0107,1.025,1.0483,1.0509,1.0616,1.0746,1.0758,1.096,1.1007,1.1096,1.1206,1.1208,1.134,1.1419,1.1422,1.1265,1.1246,1.1229,1.1201,1.137,0,0,0,0,0,0.9626,0.9725,0.9958,1.0012,1.008,1.0281,1.0353,1.047,1.0626,1.0687,1.0841,1.0987,1.1109,1.1183,1.1307,1.1379,1.1432,1.1396,1.1379,1.1364,1.1364,1.1414,1.1401,1.1537,1.1538,1.1538,0,0,0.9545,0.9706,0.9756,0.9971,1.0096,1.0195,1.0331,1.0429,1.0505,1.0702,1.0815,1.0932,1.111,1.1201,1.1249,1.1295,1.1339,1.1359,1.1345,1.1354,1.1408,1.1395,1.1383,1.1535,1.1535,1.1536,0,0,0.9449,0.958,0.9641,0.9764,0.9951,1.0086,1.01,1.0319,1.0405,1.0522,1.0673,1.0767,1.0969,1.1091,1.1179,1.1133,1.1241,1.1167,1.1079,1.1125,1.1114,1.1106,1.1091,1.1083,1.1167,1.1167,1.1167,0,0.9324,0.948,0.9659,0.975,0.9841,1.0026,1.0091,1.0201,1.0418,1.0477,1.0526,1.0787,1.092,1.1043,1.1033,1.1097,1.1122,1.1143,1.1101,1.1095,1.1089,1.1078,1.1071,1.1157,1.1158,1.1159,1.116,0,0.9319,0.9424,0.9452,0.9659,0.9754,0.983,1.0022,1.0097,1.0206,1.0336,1.0454,1.062,1.0782,1.082,1.0926,1.096,1.0983,1.1063,1.1147,1.1063,1.1056,1.1052,1.1142,1.1146,1.1149,1.1152,0,0,0.9087,0.9396,0.9403,0.95,0.9723,0.9808,0.9895,1.0055,1.0115,1.026,1.0339,1.0509,1.0586,1.0686,1.0809,1.0848,1.0804,1.0926,1.0933,1.0898,1.0854,1.0792,1.0784,1.0878,1.0878,1.0878,1.084,0,0.9025,0.919,0.9356,0.9462,0.9564,0.9743,0.9819,0.9964,1.0089,1.0194,1.0332,1.045,1.0542,1.0604,1.0652,1.0799,1.0798,1.0804,1.0954,1.0957,1.0903,1.078,1.0714,1.067,1.0838,1.0837,1.0837,0,0.8973,0.9111,0.9228,0.9444,0.9493,0.9558,0.972,0.9818,0.9987,1.0076,1.0189,1.032,1.0422,1.0494,1.0639,1.0639,1.0711,1.0793,1.0795,1.0815,1.0891,1.0797,1.0659,1.0652,1.0834,1.0834,1.0834,0,0.8794,0.9009,0.9108,0.9186,0.944,0.9483,0.959,0.9763,0.9849,0.9991,1.005,1.02,1.0282,1.0397,1.0565,1.0602,1.0693,1.0779,1.077,1.0765,1.078,1.0776,1.0652,1.0825,1.0825,1.0825,1.0825,0,0.8706,0.8771,0.9032,0.9092,0.9171,0.9362,0.9435,0.9559,0.9712,0.9801,0.9965,1.0045,1.0263,1.037,1.0502,1.0603,1.0639,1.0714,1.0748,1.0699,1.0689,1.0748,1.0756,1.0823,1.0824,1.0824,1.0824,0,0.8518,0.8695,0.8815,0.9048,0.9108,0.9155,0.9355,0.9422,0.9557,0.9668,0.9705,0.9918,1.0052,1.0233,1.0422,1.0512,1.0596,1.065,1.0538,1.0559,1.054,1.0539,1.0449,1.0448,1.0618,1.0617,1.0615,0,0.845,0.8505,0.8744,0.8816,0.8919,0.9032,0.9122,0.9314,0.9401,0.9601,0.9643,0.9791,0.9919,1.0126,1.0297,1.0444,1.0504,1.0462,1.0526,1.0477,1.0504,1.0499,1.0506,1.0445,1.0442,1.044,1.0438,0,0.8312,0.8398,0.8521,0.8676,0.8779,0.8911,0.9049,0.9099,0.932,0.941,0.9551,0.965,0.9846,0.9991,1.0161,1.0274,1.0393,1.0417,1.0423,1.0373,1.0307,1.0344,1.0495,1.0418,1.042,1.0421,1.0422,1.0423,0.8183,0.8241,0.8419,0.8552,0.8678,0.8804,0.8879,0.9025,0.9146,0.9321,0.9427,0.9563,0.9736,0.9978,1.0086,1.0196,1.0243,1.025,1.0253,1.0252,1.0236,1.0289,1.0228,1.0229,1.0229,1.023,1.0231,0,0.8054,0.8178,0.8299,0.8489,0.8594,0.8699,0.886,0.8941,0.9059,0.921,0.9334,0.9496,0.9639,0.9823,0.9979,1.0032,1.0091,1.0066,1.0064,1.0089,1.0185,1.0165,1.0016,1.0016,1.0017,1.0017,1.0017,1.0017,0.7999,0.8103,0.8211,0.838,0.8505,0.864,0.8723,0.8842,0.8964,0.9139,0.9258,0.9378,0.9544,0.9714,0.985,0.9901,0.9951,0.991,0.9977,1.0063,1.0082,1.01,1.0082,0.9919,0.9919,0.9873,0.9872,0.9872]},{"header":{"parameterUnit":"m.s-1","parameterCategory":1,"la1":30.2991,"la2":30.254,"lo1":-89.0895,"lo2":-89.0444,"dy":0.0017,"dx":0.0017,"nx":28,"ny":28,"refTime":"2024-05-13T09:00:00:Z","depth":0,"parameterNumber":3,"parameterNumberName":"V-component_of_WINDS"},"data":[0,0,0,0,0,0,0,0,0,0,0,0,0,0,0,0,0,0,0,0,0,0,0,0,0,0,0,0,0,0,0,0,0,0,0,0,0,0,0,0,0,0,0,0,0,0,0,0,0,0,0,0,0,0,0,0,0,0,-4.8982,-4.8972,0,-4.8027,-4.8016,-4.8005,-4.7598,-4.76,-4.7601,-4.7603,-4.6598,-4.6571,-4.6542,0,0,0,0,0,0,0,0,0,0,0,0,0,-5.0432,-5.0408,-4.8984,-4.8972,-4.896,-4.8029,-4.8015,-4.8002,-4.7597,-4.76,-4.7602,-4.7604,-4.6607,-4.6574,-4.654,0,0,0,0,0,0,0,0,0,0,0,0,0,-4.9672,-5.04,-4.8986,-4.8646,-4.8606,-4.8031,-4.8015,-4.7999,-4.7597,-4.76,-4.7602,-4.7605,-4.6619,-4.6577,-4.6535,-4.6219,0,0,-4.6405,-4.6386,0,0,0,0,0,0,0,0,-4.9716,-4.9619,-4.8708,-4.8668,-4.8623,-4.7935,-4.8157,-4.7401,-4.7596,-4.7979,-4.7603,-4.7606,-4.7039,-4.6962,-4.6776,-4.6172,-4.6129,-4.6401,-4.6375,-4.6357,-4.6345,0,0,0,0,0,0,0,-4.9769,-4.9658,-4.8604,-4.8695,-4.8643,-4.8533,-4.8428,-4.8012,-4.7505,-4.7946,-4.7914,-4.7808,-4.7016,-4.6818,-4.6749,-4.6114,-4.6402,-4.6364,-4.6338,-4.6322,-4.5194,-4.5189,0,0,0,0,0,0,-4.9881,-4.9705,-4.8634,-4.8575,-4.9188,-4.8505,-4.8387,-4.8152,-4.7509,-4.7414,-4.7807,-4.7793,-4.689,-4.68,-4.6712,-4.6292,-4.6357,-4.6317,-4.6293,-4.5198,-4.5193,-4.5188,0,0,0,0,0,0,-4.9914,-4.979,-4.8673,-4.9131,-4.8981,-4.8477,-4.8217,-4.8132,-4.7934,-4.7404,-4.7309,-4.77,-4.6888,-4.6772,-4.6344,-4.6252,-4.6298,-4.6259,-4.5203,-4.5196,-4.519,-4.5456,0,0,0,0,0,0,-4.9957,-4.9804,-4.9685,-4.9132,-4.8958,-4.833,-4.8211,-4.8112,-4.7864,-4.7837,-4.7278,-4.7187,-4.6881,-4.6411,-4.6302,-4.6194,-4.6226,-4.5209,-4.52,-4.5192,-4.5453,-4.5459,-4.5465,0,0,0,0,0,-5.0011,-4.9793,-4.9681,-4.9554,-4.88,-4.8325,-4.8224,-4.7884,-4.786,-4.7729,-4.7389,-4.7205,-4.6284,-4.637,-4.6245,-4.6123,-4.5213,-4.5203,-4.5193,-4.545,-4.5458,-4.5465,0,0,0,0,0,0,-5.0338,-4.9715,-4.9582,-4.9182,-4.8812,-4.8258,-4.8084,-4.7905,-4.7526,-4.7514,-4.7101,-4.6978,-4.6583,-4.631,-4.6419,-4.5779,-4.5732,-4.5697,-4.5971,-4.5973,-4.598,-4.6048,-4.6191,0,0,0,0,0,-5.0367,-5.0043,-4.9511,-4.9208,-4.903,-4.8592,-4.8372,-4.8143,-4.7737,-4.7576,-4.7203,-4.681,-4.643,-4.6188,-4.581,-4.5416,-4.5281,-4.5269,-4.5276,-4.5283,-4.5253,-4.5015,-4.5001,-4.5155,-4.5155,-4.5156,0,0,-5.0416,-5.0035,-4.9854,-4.9265,-4.895,-4.8614,-4.8461,-4.8112,-4.7855,-4.7519,-4.7092,-4.6807,-4.634,-4.5927,-4.5725,-4.5686,-4.5183,-4.527,-4.5281,-4.5245,-4.5004,-4.499,-4.4977,-4.5149,-4.515,-4.5151,0,0,-5.0333,-5.0019,-4.9728,-4.9418,-4.8947,-4.8656,-4.8589,-4.8062,-4.7861,-4.7429,-4.7168,-4.6854,-4.6212,-4.5887,-4.5639,-4.5438,-4.525,-4.5327,-4.5352,-4.5126,-4.5113,-4.51,-4.5018,-4.4995,-4.5301,-4.5302,-4.5302,0,-5.0451,-4.9943,-4.96,-4.9265,-4.9009,-4.8701,-4.8398,-4.8111,-4.7538,-4.7364,-4.7333,-4.6518,-4.6182,-4.5685,-4.5637,-4.5449,-4.5349,-4.5382,-4.5145,-4.5128,-4.511,-4.5027,-4.4999,-4.5313,-4.5312,-4.5311,-4.531,0,-5.0107,-4.9759,-4.958,-4.9043,-4.8767,-4.8452,-4.8051,-4.7813,-4.761,-4.7321,-4.688,-4.6469,-4.5999,-4.5866,-4.5661,-4.5337,-4.5326,-4.5227,-4.5168,-4.5113,-4.5027,-4.4993,-4.533,-4.5326,-4.5322,-4.5319,0,0,-5.0196,-4.9478,-4.9416,-4.9166,-4.8626,-4.8344,-4.8012,-4.7561,-4.736,-4.6976,-4.6678,-4.6145,-4.6048,-4.5766,-4.5522,-4.5326,-4.5181,-4.5245,-4.5228,-4.5239,-4.4786,-4.4858,-4.4827,-4.5059,-4.5052,-4.5046,-4.4822,0,-5.0033,-4.9431,-4.9113,-4.8641,-4.8309,-4.8013,-4.7721,-4.7353,-4.7075,-4.6746,-4.6435,-4.6059,-4.5966,-4.5793,-4.5586,-4.5244,-4.5082,-4.5257,-4.4765,-4.4752,-4.4881,-4.4784,-4.4857,-4.4666,-4.4787,-4.4782,-4.4777,0,-4.976,-4.9388,-4.8887,-4.8381,-4.8229,-4.7975,-4.7532,-4.7227,-4.68,-4.661,-4.63,-4.606,-4.5688,-4.5669,-4.5144,-4.527,-4.5051,-4.4853,-4.4837,-4.4768,-4.4754,-4.4701,-4.4597,-4.4565,-4.4723,-4.4727,-4.4731,0,-4.9864,-4.9238,-4.8854,-4.8651,-4.8054,-4.788,-4.7622,-4.72,-4.6948,-4.656,-4.639,-4.5965,-4.5727,-4.5399,-4.5046,-4.5067,-4.4553,-4.4506,-4.4374,-4.4383,-4.4269,-4.4279,-4.4118,-4.4151,-4.4151,-4.4152,-4.4152,0,-4.9708,-4.941,-4.8893,-4.8656,-4.8311,-4.7946,-4.7611,-4.7328,-4.6955,-4.6651,-4.6369,-4.6088,-4.5646,-4.5307,-4.503,-4.4632,-4.453,-4.4358,-4.4285,-4.4375,-4.4396,-4.4217,-4.4217,-4.4143,-4.4145,-4.4147,-4.4148,0,-4.9761,-4.9405,-4.8966,-4.844,-4.8301,-4.8069,-4.7612,-4.7366,-4.7078,-4.6696,-4.6584,-4.6126,-4.5713,-4.5334,-4.4782,-4.4594,-4.4187,-4.4102,-4.4334,-4.4291,-4.4177,-4.4189,-4.3885,-4.3821,-4.3913,-4.3912,-4.3912,0,-4.9681,-4.9445,-4.8896,-4.8677,-4.8426,-4.8076,-4.7819,-4.745,-4.7192,-4.6689,-4.6501,-4.607,-4.5703,-4.5055,-4.4666,-4.4241,-4.4134,-4.4058,-4.4067,-4.4165,-4.4118,-4.4132,-4.4101,-4.4059,-4.406,-4.4061,-4.4062,0,-4.9572,-4.9407,-4.9053,-4.8636,-4.834,-4.7991,-4.7632,-4.7467,-4.7027,-4.6751,-4.6329,-4.6046,-4.5486,-4.5055,-4.4587,-4.4309,-4.4106,-4.4065,-4.4008,-4.4092,-4.4231,-4.4143,-4.4334,-4.4069,-4.4068,-4.4068,-4.4067,-4.4067,-4.9545,-4.932,-4.8899,-4.8511,-4.8205,-4.7877,-4.7618,-4.73,-4.6945,-4.6464,-4.6267,-4.5836,-4.5408,-4.476,-4.4485,-4.4136,-4.4093,-4.4017,-4.3994,-4.3978,-4.399,-4.4301,-4.405,-4.405,-4.4049,-4.4048,-4.4048,0,-4.9412,-4.9128,-4.8777,-4.8287,-4.798,-4.7832,-4.7426,-4.7176,-4.6803,-4.6427,-4.6075,-4.5585,-4.5168,-4.475,-4.4307,-4.4107,-4.4002,-4.4001,-4.4005,-4.3942,-4.4059,-4.4145,-4.4093,-4.4093,-4.4093,-4.4093,-4.4093,-4.4093,-4.9306,-4.8915,-4.8701,-4.8151,-4.7864,-4.7446,-4.7226,-4.6918,-4.6615,-4.6085,-4.5739,-4.5474,-4.5075,-4.4602,-4.4208,-4.4095,-4.3939,-4.3962,-4.3822,-4.3936,-4.3935,-4.3935,-4.4014,-4.3935,-4.3935,-4.3732,-4.373,-4.3729]}]]